ICULIA30 Weather Reports


time (UTC)temp
C
wind
direction
speed
KPH
gust
KPH
rain 1hr
cm
rain 24hr
cm
rain mn
cm
humidity
%
barometer
mb
20260503215017 34 223 8.0 20.9 0.00 0.00 0.00 27 1011.6
20260503214017 34 214 6.4 17.7 0.00 0.00 0.00 26 1011.5
20260503213017 34 204 9.7 24.1 0.00 0.00 0.00 24 1011.6
20260503212017 33 213 6.4 19.3 0.00 0.00 0.00 24 1011.6
20260503211017 33 226 11.3 25.7 0.00 0.00 0.00 25 1011.6
20260503210017 33 201 8.0 20.9 0.00 0.00 0.00 25 1011.7
20260503205017 33 210 11.3 24.1 0.00 0.00 0.00 25 1011.8
20260503204017 34 221 12.9 27.4 0.00 0.00 0.00 24 1011.8
20260503203017 34 223 11.3 24.1 0.00 0.00 0.00 26 1011.9
20260503202017 34 215 9.7 27.4 0.00 0.00 0.00 27 1011.9
20260503201039 35 211 8.0 19.3 0.00 0.00 0.00 27 1011.8
20260503200017 35 228 11.3 27.4 0.00 0.00 0.00 28 1011.8
20260503195018 35 219 8.0 19.3 0.00 0.00 0.00 26 1011.9
20260503194037 35 229 8.0 20.9 0.00 0.00 0.00 27 1011.9
20260503193017 35 228 8.0 20.9 0.00 0.00 0.00 27 1012.0
20260503192018 34 193 8.0 20.9 0.00 0.00 0.00 27 1012.2
20260503191037 34 201 8.0 20.9 0.00 0.00 0.00 28 1012.2
20260503190017 34 201 4.8 14.5 0.00 0.00 0.00 28 1012.2
20260503185018 34 197 6.4 12.9 0.00 0.00 0.00 27 1012.3
20260503184017 34 179 8.0 17.7 0.00 0.00 0.00 27 1012.4
20260503183017 34 175 4.8 16.1 0.00 0.00 0.00 26 1012.5
20260503182017 34 160 4.8 14.5 0.00 0.00 0.00 26 1012.6
20260503181017 33 168 4.8 11.3 0.00 0.00 0.00 26 1012.7
20260503180018 34 173 3.2 14.5 0.00 0.00 0.00 26 1012.8
20260503175018 33 201 3.2 12.9 0.00 0.00 0.00 25 1012.9
20260503174017 33 232 3.2 11.3 0.00 0.00 0.00 25 1013.2
20260503173017 33 208 4.8 14.5 0.00 0.00 0.00 25 1013.3
20260503172017 32 207 4.8 12.9 0.00 0.00 0.00 26 1013.3
20260503171017 32 200 6.4 11.3 0.00 0.00 0.00 26 1013.3
20260503131017 21 117 0.0 3.2 0.00 0.00 0.00 47 1012.2
20260503081017 23 0.0 3.2 0.00 0.00 0.00 49 1010.8
20260503072017 23 221 0.0 3.2 0.00 0.00 0.00 53 1011.8
20260503071017 23 221 0.0 3.2 0.00 0.00 0.00 53 1011.7
20260503055037 25 242 0.0 3.2 0.00 0.00 0.00 49 1011.3
20260503054017 25 242 1.6 3.2 0.00 0.00 0.00 49 1011.2
20260503053017 25 0.0 3.2 0.00 0.00 0.00 47 1011.3
20260503052037 25 0.0 3.2 0.00 0.00 0.00 46 1011.2
20260503051017 25 269 0.0 3.2 0.00 0.00 0.00 43 1011.1
20260503050017 25 304 0.0 3.2 0.00 0.00 0.00 42 1011.1
20260503045017 26 304 0.0 3.2 0.00 0.00 0.00 42 1011.1
20260503044017 26 0.0 3.2 0.00 0.00 0.00 41 1011.2
20260503043037 26 0.0 3.2 0.00 0.00 0.00 40 1011.2
20260503042017 26 0.0 3.2 0.00 0.00 0.00 39 1011.1
20260503041037 26 0.0 0.0 0.00 0.00 0.00 38 1010.9
20260503022016 28 300 3.2 6.4 0.00 0.00 0.00 32 1009.9
20260503021057 29 301 3.2 8.0 0.00 0.00 0.00 32 1009.7
20260503020017 29 286 3.2 9.7 0.00 0.00 0.00 31 1009.6
20260503015016 30 286 3.2 6.4 0.00 0.00 0.00 30 1009.3
20260503014017 30 243 1.6 6.4 0.00 0.00 0.00 30 1009.1
20260503013016 30 0.0 0.0 0.00 0.00 0.00 29 1009.0
20260503012017 31 285 3.2 14.5 0.00 0.00 0.00 28 1009.1
20260503011017 31 263 3.2 12.9 0.00 0.00 0.00 28 1008.8
20260503010017 32 299 8.0 16.1 0.00 0.00 0.00 28 1008.7
20260503005016 32 301 4.8 14.5 0.00 0.00 0.00 28 1008.5
20260503004017 32 279 4.8 12.9 0.00 0.00 0.00 28 1008.6
20260503003017 32 283 4.8 14.5 0.00 0.00 0.00 28 1008.4
20260503002017 33 285 8.0 16.1 0.00 0.00 0.00 28 1008.4
20260503001037 33 297 8.0 17.7 0.00 0.00 0.00 28 1008.5
20260503000017 33 279 6.4 17.7 0.00 0.00 0.00 28 1008.5
20260502235037 33 266 6.4 19.3 0.00 0.00 0.00 28 1008.3
20260502234017 33 270 6.4 20.9 0.00 0.00 0.00 28 1008.4
20260502233016 34 280 6.4 19.3 0.00 0.00 0.00 27 1008.1
20260502232036 34 293 6.4 19.3 0.00 0.00 0.00 27 1008.2
20260502231016 35 295 6.4 17.7 0.00 0.00 0.00 26 1008.2
20260502230017 35 280 4.8 17.7 0.00 0.00 0.00 26 1008.2
20260502225016 35 239 4.8 16.1 0.00 0.00 0.00 24 1008.2
20260502224017 36 236 9.7 22.5 0.00 0.00 0.00 24 1008.3
20260502223037 36 259 8.0 19.3 0.00 0.00 0.00 24 1008.2
20260502222017 36 267 8.0 19.3 0.00 0.00 0.00 23 1008.4
20260502221017 36 257 4.8 16.1 0.00 0.00 0.00 23 1008.3
20260502220016 36 234 6.4 17.7 0.00 0.00 0.00 23 1008.2